Flag Weather past 2 weeks in Kamp-Lintfort, North Rhine-Westphalia, Germany

Now
59 °F

Overcast.


Feels Like: 60 °F
Forecast: 51 / 64 °F
Wind: 3 mph from South

Location: Duesseldorf

Current Time: Oct 30, 2014 at 2:25:33 PM

Latest Report: Oct 30, 2014 at 2:00 PM


Visibility: 11 mi

Pressure: 30.21 "Hg

Humidity: 81%

Dew point: 54 °F

Location of Kamp-LintfortLocation

Historic Weather in Kamp-Lintfort — Graph

°F

Kamp-Lintfort temperature yesterday

Maximum temperature yesterday: 51 °F (at 11:00 PM)
Minimum temperature yesterday: 42 °F (at 1:00 AM)
Average temperature yesterday: 47 °F

Past Weeks' High & Low Weather Summary

 TemperatureHumidityPressure
High74 °F (Oct 19, 2:00 PM)100% (Oct 30, 5:00 AM)30.29 "Hg (Oct 30, 5:00 AM)
Low42 °F (Oct 29, 1:00 AM)60% (Oct 19, 3:00 PM)29.50 "Hg (Oct 21, 4:00 PM)
Average54 °F84%30.04 "Hg
* Reported Oct 15 2:00 PM — Oct 30 1:00 PM, Kamp-Lintfort, Weather by CustomWeather, © 2014

Note: Actual official high and low records may vary slightly from our data, if they occured in-between our weather recording intervals... More about our weather records

Advertising

Kamp-Lintfort weather history for previous 24 hours

 ConditionsComfort  
Time TempWeatherWind HumidityBarometerVisibility
1:00 PM
Oct 30
58 °FOvercast.5 mph83%30.22 "Hg9 mi
12:00 PM57 °FLow clouds.3 mph87%30.23 "Hg6 mi
11:00 AM55 °FFog.3 mph90%30.22 "Hg4 mi
9:00 AM53 °FLow clouds.2 mph97%30.21 "Hg3 mi
8:00 AM53 °FFog.3 mph98%30.20 "Hg2 mi
7:00 AM52 °FFog.2 mph99%30.19 "Hg1 mi
6:00 AM52 °FFog.1 mph99%30.18 "Hg1 mi
5:00 AM52 °FFog.2 mph100%30.16 "Hg1 mi
3:00 AM52 °FFog.1 mph99%30.16 "Hg1 mi
2:00 AM51 °FLow clouds.1 mph98%30.16 "Hg2 mi
1:00 AM51 °FDrizzle. Low clouds.2 mph97%30.15 "Hg2 mi
12:00 AM51 °FFog.1 mph96%30.15 "Hg4 mi
11:00 PM
Oct 29
51 °FFog.2 mph96%30.13 "Hg4 mi
9:00 PM51 °FLow clouds.2 mph94%30.12 "Hg4 mi
8:00 PM51 °FRain. Low clouds.1 mph96%30.12 "Hg4 mi
7:00 PM50 °FLow clouds.1 mph94%30.11 "Hg5 mi
6:00 PM50 °FRain. Low clouds.1 mph93%30.09 "Hg5 mi
5:00 PM50 °FRain. Low clouds.2 mph94%30.08 "Hg4 mi
4:00 PM50 °FRain. Low clouds.3 mph91%30.07 "Hg5 mi
3:00 PM50 °FRain. Overcast.3 mph91%30.07 "Hg4 mi
2:00 PM50 °FRain. Low clouds.5 mph88%30.07 "Hg4 mi
Weather by CustomWeather, © 2014

See weather overviewHow to use our weather pages